TimeCST,TemperatureF,Dew PointF,Humidity,Sea Level PressureIn,VisibilityMPH,Wind Direction,Wind SpeedMPH,Gust SpeedMPH,PrecipitationIn,Events,Conditions,WindDirDegrees,DateUTC
12:54 AM,15.1,7.0,70,30.73,10.0,North,8.1,-,N/A,,Clear,360,2013-11-24 06:54:00
1:54 AM,15.1,7.0,70,30.73,10.0,North,8.1,-,N/A,,Clear,10,2013-11-24 07:54:00
2:54 AM,14.0,6.1,71,30.73,10.0,North,9.2,-,N/A,,Clear,350,2013-11-24 08:54:00
3:54 AM,12.9,6.1,74,30.74,10.0,North,6.9,-,N/A,,Clear,350,2013-11-24 09:54:00
4:54 AM,12.9,6.1,74,30.74,10.0,North,9.2,-,N/A,,Clear,350,2013-11-24 10:54:00
5:54 AM,12.0,6.1,77,30.75,10.0,NNW,4.6,-,N/A,,Clear,340,2013-11-24 11:54:00
6:54 AM,12.0,5.0,73,30.77,10.0,WNW,4.6,-,N/A,,Clear,300,2013-11-24 12:54:00
7:54 AM,15.1,7.0,70,30.78,10.0,WNW,5.8,-,N/A,,Clear,300,2013-11-24 13:54:00
8:54 AM,17.1,7.0,65,30.79,10.0,NNW,5.8,-,N/A,,Clear,330,2013-11-24 14:54:00
9:54 AM,19.0,3.9,52,30.79,10.0,WNW,6.9,-,N/A,,Clear,300,2013-11-24 15:54:00
10:54 AM,23.0,7.0,50,30.76,10.0,North,6.9,-,N/A,,Clear,360,2013-11-24 16:54:00
11:54 AM,23.0,8.1,53,30.71,10.0,NW,3.5,-,N/A,,Clear,310,2013-11-24 17:54:00
12:54 PM,26.1,6.1,43,30.67,10.0,NE,3.5,-,N/A,,Clear,50,2013-11-24 18:54:00
1:54 PM,26.1,1.9,35,30.64,10.0,Calm,Calm,-,N/A,,Clear,0,2013-11-24 19:54:00
2:54 PM,26.1,3.0,37,30.63,10.0,Calm,Calm,-,N/A,,Clear,0,2013-11-24 20:54:00
3:54 PM,26.1,3.0,37,30.61,10.0,South,3.5,-,N/A,,Clear,170,2013-11-24 21:54:00
4:54 PM,24.1,7.0,48,30.59,10.0,South,4.6,-,N/A,,Clear,180,2013-11-24 22:54:00
5:54 PM,21.9,8.1,55,30.60,10.0,South,4.6,-,N/A,,Clear,190,2013-11-24 23:54:00
6:54 PM,21.9,10.0,60,30.58,10.0,SE,4.6,-,N/A,,Clear,140,2013-11-25 00:54:00
7:54 PM,19.9,10.9,68,30.56,10.0,SSE,4.6,-,N/A,,Clear,150,2013-11-25 01:54:00
8:54 PM,19.9,10.0,65,30.55,10.0,South,5.8,-,N/A,,Clear,180,2013-11-25 02:54:00
9:54 PM,21.9,10.9,63,30.52,10.0,South,6.9,-,N/A,,Clear,190,2013-11-25 03:54:00
10:54 PM,23.0,10.0,58,30.51,10.0,South,8.1,-,N/A,,Clear,180,2013-11-25 04:54:00
11:54 PM,24.1,10.9,57,30.48,10.0,South,11.5,-,N/A,,Clear,180,2013-11-25 05:54:00